Home   Weather   Columbus   Past weeks

Flag for USA Past Weather in Columbus, Ohio, USA — Yesterday and Last 2 Weeks

Now
74 °F

Overcast.


Feels Like: 70 °F
Forecast: 74 / 85 °F
Wind: 5 mph from Southeast

Location: John Glenn Columbus International Airport

Current Time: Jul 22, 2017 at 6:36:21 am

Latest Report: Jul 22, 2017 at 5:51 am


Visibility: 10 mi

Pressure: 29.86 "Hg

Humidity: 100%

Dew Point: 74 °F

Location of ColumbusLocation

Past Weather in Columbus — Graph

°F

Columbus Temperature Yesterday

Maximum temperature yesterday: 84 °F (at 6:51 pm)
Minimum temperature yesterday: 72 °F (at 10:02 am)
Average temperature yesterday: 79 °F

High & Low Weather Summary for the Past Weeks

 TemperatureHumidityPressure
High90 °F (Jul 18, 3:51 pm)100% (Jul 7, 5:51 am)30.12 "Hg (Jul 7, 5:51 am)
Low58 °F (Jul 9, 3:51 am)32% (Jul 9, 2:51 pm)29.77 "Hg (Jul 7, 7:51 pm)
Average76 °F79%29.99 "Hg
* Reported Jul 7 5:51 am — Jul 22 5:18 am, Columbus. Weather by CustomWeather, © 2017

Note: Actual official high and low records may vary slightly from our data, if they occured in-between our weather recording intervals... More about our weather records

Advertising

Columbus Weather History for the Previous 24 Hours

Scroll right to see more
 ConditionsComfort  
Time TempWeatherWind HumidityBarometerVisibility
5:18 am
Sat, Jul 22
74 °FPassing clouds.6 mph97%29.90 "Hg10 mi
4:57 am74 °FThunderstorms. Fog.3 mph97%29.92 "Hg6 mi
4:44 am74 °FThundershowers. Passing clouds.5 mph97%29.91 "Hg10 mi
3:51 am74 °FPassing clouds.3 mph97%29.90 "Hg10 mi
2:51 am74 °FPassing clouds.3 mph97%29.90 "Hg10 mi
1:51 am75 °FPassing clouds.6 mph96%29.93 "Hg10 mi
12:51 am75 °FClear.3 mph96%29.96 "Hg10 mi
11:51 pm
Fri, Jul 21
77 °FPassing clouds.No wind90%29.95 "Hg10 mi
10:51 pm78 °FPassing clouds.No wind87%29.95 "Hg10 mi
9:51 pm79 °FPassing clouds.No wind84%29.93 "Hg10 mi
8:51 pm81 °FLight rain. Partly sunny.6 mph79%29.93 "Hg10 mi
7:51 pm83 °FPartly sunny.6 mph70%29.94 "Hg10 mi
6:51 pm84 °FScattered clouds.7 mph70%29.94 "Hg10 mi
5:51 pm83 °FScattered clouds.6 mph72%29.94 "Hg10 mi
4:51 pm83 °FOvercast.8 mph72%29.96 "Hg10 mi
3:51 pm81 °FCloudy.8 mph77%29.98 "Hg9 mi
3:37 pm80 °FCloudy.7 mph79%30.01 "Hg9 mi
2:51 pm79 °FOvercast.12 mph82%29.98 "Hg10 mi
2:29 pm78 °FPartly sunny.12 mph84%30.01 "Hg10 mi
2:07 pm78 °FCloudy.10 mph84%29.99 "Hg10 mi
1:29 pm77 °FMostly cloudy.8 mph96%29.98 "Hg7 mi
1:08 pm77 °FFog.8 mph96%29.99 "Hg6 mi
12:51 pm77 °FFog.9 mph96%29.97 "Hg4 mi
11:51 am76 °FMostly cloudy.No wind97%29.96 "Hg6 mi
10:51 am76 °FOvercast.14 mph97%29.96 "Hg7 mi
10:17 am73 °FThunderstorms. Fog.14 mph97%30.00 "Hg5 mi
10:02 am72 °FThunderstorms. Fog.12 mph100%30.02 "Hg6 mi
9:37 am73 °FThunderstorms. Fog.23 mph94%30.03 "Hg1 mi
8:56 am80 °FThunderstorms. Mostly cloudy.7 mph87%29.98 "Hg7 mi
8:31 am81 °FPartly sunny.8 mph85%29.98 "Hg7 mi
8:06 am81 °FThunderstorms. Overcast.6 mph85%29.97 "Hg7 mi
7:51 am80 °FFog.3 mph87%29.95 "Hg6 mi
7:37 am80 °FFog.3 mph87%29.97 "Hg6 mi
6:51 am78 °FFog.No wind93%29.94 "Hg6 mi
Weather by CustomWeather, © 2017

See weather overviewHow to use our weather pages